Погода в Антушево

Россия / Вологодская область     59°54′06″N   37°40′25″E
темп.,
°C
ветер,
м/с
пор.,
м/с
влажн.,
%
обл.,
%
осадки,
мм/ч
давл.,
гПа
погр.,
м
26 февраля, пт
пт2600:00−6ююв369696 0.0 1009148
03:00−4ююв589698 0.7 1006243
06:00−3юв5996100 2.4 1002283
09:00−3юв61097100 6.3 997333
12:00−4юв5897100 4.5 994235
15:00−4вюв3399100 8.3 99391
18:00−9св5896100 3.5 994270
21:00−11ссв4894100 4.7 999435
27 февраля, сб
сб2700:00−12с3794100 0.2 1002254
03:00−15с339595 0.2 100556
06:00−15ссв229454 0.0 100632
09:00−14с129559 0.1 100896
12:00−11ссз239479 0.1 1010239
15:00−9сз139482 0.1 1011187
18:00−8зсз119696 0.1 101221
21:00−6ссз249794 0.4 1014112
28 февраля, вс
вс2800:00−7с129790 0.3 101421
03:00−6сз239789 0.4 101542
06:00−7зсз239797 0.3 101450
09:00−7сз359799 0.4 1015166
12:00−6сз239694 0.1 1014202
15:00−4сз129196 0.1 1016276
18:00−8з119389 0.0 101621
21:00−6ю229394 0.0 101831
1 марта, пн
пн100:00−5ююз2395100 0.0 101883
03:00−5ююз369699 0.1 1018162
06:00−5юз379699 0.3 1017208
09:00−2зюз489599 0.3 1015392
12:000зюз5994100 0.0 1013692
15:00+1зюз511100100 1.4 1011470
18:00+1з61299100 0.6 1008526
21:00+1зсз61399100 1.6 1007690
2 марта, вт
вт200:00+1зсз51196100 0.1 1007626
03:00−1з5129590 0.1 1007466
06:00−1зсз6139188 0.3 1006647
09:00−1сз6118881 0.3 1006865
12:00−1зсз61090100 0.1 1006959
15:000сз61088100 0.2 1007966
18:00−1сз51096100 0.2 1008625
21:00−4сз4109594 0.3 1010360